User: anonymous   Login
Location: Buchberg
(46.9333°N, 15.8500°E)
Time: 02:17:05
(UTC+00:00)
Language:

Okean 2 - Orbit

View from above orbital plane
View from above orbital plane
View from above satellite
View from above satellite

Ground track
Ground track

The orbit data is extracted from the following two-line orbital elements,

1 20510U 90018A   20272.50273764 +.00000336 +00000-0 +25120-4 0  9999
2 20510 082.5124 099.2736 0010691 246.8334 171.2405 14.99516669640023
Epoch (UTC): 28 September 2020 12:03:56
Eccentricity: 0.0010691
inclination: 82.5124°
perigee height: 561 km
apogee height: 576 km
right ascension of ascending node: 99.2736°
argument of perigee: 246.8334°
revolutions per day: 14.99516669
mean anomaly at epoch: 171.2405°
orbit number at epoch: 64002

The dashed part of the orbit path shows where the satellite is in the earth's shadow,  

DLR